Weather History for Brainerd, MN

Change the Weather History Date:

Friday, April 26, 2013

  Actual Average Record
Temperature  
Mean Temperature 52 °F -  
Max Temperature 66 °F 61 °F 85 °F (1962)
Min Temperature 39 °F 35 °F 17 °F (2002)
Degree Days  
Heating Degree Days 12    
Growing Degree Days 2 (Base 50)    
Moisture  
Dew Point 30 °F    
Average Humidity 47    
Maximum Humidity 65    
Minimum Humidity 23    
Precipitation  
Precipitation 0.00 in - - ()
Sea Level Pressure  
Sea Level Pressure 30.05 in    
Wind  
Wind Speed 4 mph (SW)    
Max Wind Speed 10 mph    
Max Gust Speed -    
Visibility 10 miles    
Events      
Averages and records for this station are not official NWS values.
T = Trace of Precipitation, MM = Missing Value Source: NWS Daily Summary

Daily Weather History Graph

Daily Weather History Graph

Search for Another Location

Airport:

Trip Planner

Search our weather history database for the weather conditions in past years. The results will help you decide how hot, cold, wet, or windy it might be!

Date:

Astronomy

Apr. 26, 2013 Rise Set
Actual Time 6:10 AM CDT 8:19 PM CDT
Civil Twilight 5:37 AM CDT 8:52 PM CDT
Nautical Twilight 4:56 AM CDT 9:33 PM CDT
Astronomical Twilight 4:11 AM CDT 10:18 PM CDT
Moon 9:47 PM CDT 6:35 AM CDT
Length of Visible Light 15h 14m
Length of Day
14h 09m
Full, 99% of the Moon is Illuminated
Apr 26
Full
May 2
Last Quarter
May 9
New
May 17
First Quarter
May 24
Full

Hourly Weather History & Observations

Time (CDT) Temp. Windchill Dew Point Humidity Pressure Visibility Wind Dir Wind Speed Gust Speed Precip Events Conditions
12:53 AM 43.0 °F 41.3 °F 25.0 °F 49% 30.07 in 10.0 mi East 3.5 mph - N/A   Overcast
2:53 AM 39.0 °F 35.7 °F 26.1 °F 60% 29.99 in 10.0 mi Variable 4.6 mph - N/A   Clear
3:53 AM 42.1 °F 37.1 °F 30.0 °F 62% 29.96 in 10.0 mi SE 8.1 mph - N/A   Clear
4:53 AM 42.1 °F 37.7 °F 28.9 °F 60% 29.96 in 10.0 mi SE 6.9 mph - N/A   Clear
5:53 AM 41.0 °F 37.1 °F 28.9 °F 62% 29.96 in 10.0 mi SSE 5.8 mph - N/A   Clear
6:53 AM 39.9 °F - 28.9 °F 65% 29.96 in 10.0 mi Calm Calm - N/A   Clear
7:53 AM 43.0 °F - 30.9 °F 62% 29.98 in 10.0 mi Calm Calm - N/A   Clear
8:53 AM 46.9 °F - 33.1 °F 59% 30.00 in 10.0 mi South 5.8 mph - N/A   Clear
9:53 AM 48.9 °F - 33.1 °F 54% 30.02 in 10.0 mi Calm Calm - N/A   Clear
10:53 AM 53.1 °F - 33.1 °F 47% 30.03 in 10.0 mi West 8.1 mph - N/A   Clear
11:53 AM 55.0 °F - 33.1 °F 43% 30.04 in 10.0 mi Calm Calm - N/A   Clear
12:53 PM 59.0 °F - 34.0 °F 39% 30.05 in 10.0 mi Calm Calm - N/A   Clear
1:53 PM 63.0 °F - 33.1 °F 33% 30.04 in 10.0 mi North 4.6 mph - N/A   Clear
2:53 PM 64.9 °F - 34.0 °F 32% 30.06 in 10.0 mi North 10.4 mph - N/A   Clear
3:53 PM 64.9 °F - 30.0 °F 27% 30.06 in 8.0 mi West 9.2 mph - N/A   Clear
4:53 PM 66.0 °F - 28.0 °F 24% 30.07 in 10.0 mi WNW 8.1 mph - N/A   Clear
5:53 PM 64.9 °F - 27.0 °F 24% 30.08 in 10.0 mi NW 6.9 mph - N/A   Clear
6:53 PM 64.9 °F - 26.1 °F 23% 30.09 in 10.0 mi West 4.6 mph - N/A   Clear
7:53 PM 61.0 °F - 28.0 °F 29% 30.11 in 10.0 mi West 5.8 mph - N/A   Clear
8:53 PM 57.0 °F - 28.9 °F 34% 30.13 in 10.0 mi Calm Calm - N/A   Clear
9:53 PM 44.1 °F 42.5 °F 28.9 °F 55% 30.15 in 10.0 mi South 3.5 mph - N/A   Clear
10:53 PM 41.0 °F 39.0 °F 28.9 °F 62% 30.16 in 10.0 mi South 3.5 mph - N/A   Clear
11:53 PM 39.0 °F - 28.0 °F 65% 30.15 in 10.0 mi Calm Calm - N/A   Clear